(29) Amphitrite
ephemeris date magn radius delta ra dec elong phase
Today21 Nov 202410.82.462 AU2.214 AU10h02m+17°49'92.4°23.6°
Opposition12 Feb 20259.22.526 AU1.541 AU09h52m+18°37'174.6°2.1°
(29) Amphitrite - 2024-11-21
astro.vanbuitenen.nl


 
-1 year
-1 month
-1 day
Now
+1 day
+1 month
+1 year

The interactive orbit chart above shows the body's path through the solar system and its position at the given date. Green and blue lines are shown perpendicular to the ecliptic plane: Green if the path is above the ecliptic plane, blue if it is below. (Left-click and drag to rotate the view; Right-click and drag to move the view; Use scroll wheel to zoom in our out.)

The orbital elements of Amphitrite are:

            e (Eccentricity)                : 0.0736232
            a (Semimajor axis)              : 2.5544444
            i (Inclination)                 : 6.07722
            Ω (Longitude of ascending node) : 356.26097
            ω (Argument of perihelion)      : 62.00528
            M (Mean anomaly)                : 48.39596
            Epoch                           : 2024 Oct 17

            L (Longitude of perihelion)     : 58.13221
            B (Latitude of perihelion)      : 5.36391
            P (Orbital period in years)     : 4.08            
        

The light curve chart below shows the estimated development of the minor planet's magnitude.


The all-sky chart below shows the path of the minor planet over the same period as the light curve. The current position is marked yellow.





The following chart shows the path of the minor planet in the next few days. The field of view is optimized for (~10x50) binoculars and finderscopes. A more printer-friendly version of the same chart can be found below.




Ephemerides:
Date       Time       RA (2000)    DEC (2000)    delta   radius  elong  phase   PA    magn
2024-11-21 00:00 UT   10 02 19.5   +17 49 52     2.214    2.462   92.4   23.6   290   10.8 
2024-11-21 13:14 UT   10 02 50.1   +17 47 38     2.207    2.462   92.8   23.6   290   10.8 
2024-11-22 00:00 UT   10 03 14.8   +17 45 51     2.202    2.463   93.2   23.6   290   10.8 
2024-11-23 00:00 UT   10 04 08.9   +17 41 55     2.190    2.463   94.0   23.6   290   10.7 
2024-11-24 00:00 UT   10 05 01.8   +17 38 05     2.177    2.464   94.7   23.5   290   10.7 
2024-11-25 00:00 UT   10 05 53.5   +17 34 21     2.165    2.465   95.5   23.5   290   10.7 
2024-11-26 00:00 UT   10 06 43.9   +17 30 43     2.153    2.465   96.3   23.4   290   10.7 
2024-11-27 00:00 UT   10 07 33.1   +17 27 10     2.141    2.466   97.1   23.4   290   10.7 
2024-11-28 00:00 UT   10 08 21.1   +17 23 44     2.129    2.467   97.9   23.3   290   10.7 
2024-11-29 00:00 UT   10 09 07.7   +17 20 25     2.117    2.468   98.8   23.3   290   10.7 
2024-11-30 00:00 UT   10 09 53.0   +17 17 11     2.105    2.468   99.6   23.2   290   10.7 
2024-12-01 00:00 UT   10 10 37.0   +17 14 05     2.092    2.469  100.4   23.1   290   10.6 
2024-12-02 00:00 UT   10 11 19.7   +17 11 05     2.080    2.470  101.2   23.1   290   10.6 
2024-12-03 00:00 UT   10 12 01.0   +17 08 12     2.068    2.471  102.1   23.0   290   10.6 
2024-12-04 00:00 UT   10 12 40.9   +17 05 26     2.056    2.471  102.9   22.9   290   10.6 
2024-12-05 00:00 UT   10 13 19.3   +17 02 47     2.045    2.472  103.8   22.8   290   10.6 
2024-12-06 00:00 UT   10 13 56.4   +17 00 15     2.033    2.473  104.6   22.7   289   10.6 
2024-12-07 00:00 UT   10 14 32.0   +16 57 50     2.021    2.474  105.5   22.6   289   10.6 
2024-12-08 00:00 UT   10 15 06.2   +16 55 33     2.009    2.474  106.4   22.5   289   10.5 
2024-12-09 00:00 UT   10 15 38.9   +16 53 23     1.997    2.475  107.2   22.3   289   10.5 
2024-12-10 00:00 UT   10 16 10.1   +16 51 20     1.986    2.476  108.1   22.2   289   10.5 
2024-12-11 00:00 UT   10 16 39.9   +16 49 25     1.974    2.476  109.0   22.1   289   10.5 
2024-12-12 00:00 UT   10 17 08.0   +16 47 38     1.963    2.477  109.9   21.9   289   10.5 
2024-12-13 00:00 UT   10 17 34.7   +16 45 58     1.951    2.478  110.8   21.8   289   10.5 
2024-12-14 00:00 UT   10 17 59.8   +16 44 26     1.940    2.479  111.7   21.7   289   10.4 
2024-12-15 00:00 UT   10 18 23.3   +16 43 02     1.928    2.479  112.6   21.5   289   10.4 
2024-12-16 00:00 UT   10 18 45.3   +16 41 46     1.917    2.480  113.5   21.3   289   10.4 
2024-12-17 00:00 UT   10 19 05.6   +16 40 38     1.906    2.481  114.5   21.2   289   10.4 
2024-12-18 00:00 UT   10 19 24.3   +16 39 38     1.895    2.482  115.4   21.0   288   10.4 
2024-12-19 00:00 UT   10 19 41.3   +16 38 46     1.884    2.482  116.4   20.8   288   10.4 
2024-12-20 00:00 UT   10 19 56.7   +16 38 03     1.873    2.483  117.3   20.6   288   10.3 
2024-12-21 00:00 UT   10 20 10.4   +16 37 27     1.862    2.484  118.3   20.4   288   10.3 


    Terminology:
            
    delta:  distance between minor planet and earth in AU
    radius: distance between minor planet and sun in AU
    magn:   magnitude (brightness) estimate    
    ra:     right ascension in hours (24h = 360deg)
    dec:    declination in degrees
    elong:  elongation in degrees (angle sun-earth-minor planet)    
    phase:  phase angle in degrees (angle sun-minor planet-earth)        
    AU:     Astronomical Unit (mean distance between earth and sun: 149597870.7 km
    

Orbital elements provided by the MPC (Minor Planet Center).
Calculations by a modified version of AAPlus, a C# implementation of the AA+ project by PJ Naughter from the algorithms presented in the book "Astronomical Algorithms" by Jean Meeus.
NGC2000 dso catalog and star labels from VizieR as provided by the Strasbourg astronomical Data Center.
Tycho2 catalog from the ESO archive.